�N����,����,�~����,�C��,���x,�C��,����,���ϕ���,�ő�u�ԕ���,�ő厞����,���˗�,�I�_���x,�n�����x,�ő啗���N��,DTYPE
"21/10/31","00:10",0.0,11.9,89.9,1020.4,304.2,1.3,1.7,319.4,0.00,10.3,16.2,"00:01:10",1
"21/10/31","00:20",0.0,12.0,90.1,1020.4,303.6,1.1,1.8,316.6,0.00,10.5,16.2,"00:10:08",1
"21/10/31","00:30",0.0,12.1,90.3,1019.9,321.8,1.1,2.0,339.6,0.00,10.6,16.1,"00:25:58",1
"21/10/31","00:40",0.0,12.0,90.4,1019.9,297.7,1.0,1.7,311.1,0.00,10.5,16.2,"00:30:34",1
"21/10/31","00:50",0.0,12.1,90.8,1020.1,302.3,1.2,1.9,303.2,0.00,10.7,16.2,"00:48:16",1
"21/10/31","01:00",0.0,12.3,90.7,1019.7,318.4,1.2,1.9,326.6,0.00,10.9,15.9,"00:50:28",1
"21/10/31","01:10",0.0,12.1,90.9,1019.7,312.2,0.5,1.2,324.2,0.00,10.7,16.2,"01:07:46",1
"21/10/31","01:20",0.0,11.7,91.1,1019.9,305.5,1.1,1.8,321.2,0.00,10.3,15.9,"01:19:26",1
"21/10/31","01:30",0.0,11.6,91.5,1019.7,323.7,1.6,2.0,324.2,0.00,10.3,16.1,"01:28:36",1
"21/10/31","01:40",0.0,11.6,91.7,1019.9,317.5,1.7,1.9,321.9,0.00,10.3,15.9,"01:33:04",1
"21/10/31","01:50",0.0,11.5,91.9,1019.9,290.2,1.1,1.3,317.7,0.00,10.3,16.0,"01:40:10",1
"21/10/31","02:00",0.0,11.7,92.1,1019.7,294.8,1.2,1.7,315.5,0.00,10.5,16.0,"01:57:30",1
"21/10/31","02:10",0.0,12.0,92.3,1019.7,286.6,1.2,1.9,314.2,0.00,10.8,16.0,"02:02:52",1
"21/10/31","02:20",0.0,12.1,92.4,1019.4,294.6,1.0,1.6,324.8,0.00,10.9,15.8,"02:10:02",1
"21/10/31","02:30",0.0,12.3,92.5,1019.4,288.3,1.0,1.3,306.0,0.00,11.2,16.0,"02:20:10",1
"21/10/31","02:40",0.0,12.5,92.6,1019.7,294.8,1.1,1.6,322.4,0.00,11.4,16.1,"02:39:20",1
"21/10/31","02:50",0.0,12.5,92.7,1019.7,325.4,1.3,2.0,327.3,0.00,11.4,15.9,"02:40:56",1
"21/10/31","03:00",0.0,12.4,92.8,1019.7,313.9,1.1,1.7,322.3,0.00,11.3,15.9,"02:53:26",1
"21/10/31","03:10",0.0,12.3,92.9,1019.7,277.3,0.7,1.1,312.0,0.00,11.2,15.8,"03:05:46",1
"21/10/31","03:20",0.0,12.4,93.1,1019.7,309.5,1.0,1.7,325.8,0.00,11.4,15.9,"03:17:26",1
"21/10/31","03:30",0.0,12.4,93.0,1019.7,300.7,0.6,1.2,319.2,0.00,11.3,15.8,"03:20:40",1
"21/10/31","03:40",0.0,12.3,93.2,1019.4,315.2,1.2,1.7,321.5,0.00,11.3,15.8,"03:32:06",1
"21/10/31","03:50",0.0,12.3,93.3,1019.4,294.2,0.8,1.9,317.8,0.00,11.3,15.8,"03:41:04",1
"21/10/31","04:00",0.0,12.3,93.4,1019.2,307.6,0.7,1.4,329.2,0.00,11.3,15.7,"03:58:52",1
"21/10/31","04:10",0.0,12.4,93.5,1019.2,305.9,1.2,1.6,329.0,0.00,11.4,15.7,"04:01:44",1
"21/10/31","04:20",0.0,12.3,93.5,1019.4,330.3,0.3,1.0,311.5,0.00,11.3,15.8,"04:17:12",1
"21/10/31","04:30",0.0,12.3,93.6,1019.4,306.0,1.0,1.4,333.8,0.00,11.3,15.7,"04:27:20",1
"21/10/31","04:40",0.0,12.4,93.7,1019.7,304.1,1.2,1.8,314.4,0.00,11.5,15.8,"04:33:46",1
"21/10/31","04:50",0.0,12.4,93.8,1019.4,293.9,1.0,1.4,320.9,0.00,11.5,15.8,"04:45:52",1
"21/10/31","05:00",0.0,12.4,93.9,1019.9,272.2,0.8,1.1,260.0,0.00,11.5,15.9,"04:51:40",1
"21/10/31","05:10",0.0,12.6,94.0,1019.4,281.6,0.8,1.1,295.8,0.00,11.7,15.8,"05:02:40",1
"21/10/31","05:20",0.0,12.8,94.0,1019.4,291.7,0.6,1.1,289.4,0.00,11.9,15.7,"05:10:48",1
"21/10/31","05:30",0.0,12.9,94.1,1019.4,303.4,0.3,1.0,312.6,0.00,12.0,15.8,"05:25:28",1
"21/10/31","05:40",0.2,13.0,94.1,1019.7,279.3,0.8,1.2,269.6,0.00,12.1,15.7,"05:34:48",1
"21/10/31","05:50",0.0,13.0,94.2,1019.9,314.6,0.2,0.9,282.2,0.00,12.1,15.7,"05:40:08",1
"21/10/31","06:00",0.0,13.0,94.2,1019.7,334.1,0.8,1.2,335.3,0.00,12.1,15.7,"05:55:20",1
"21/10/31","06:10",0.0,13.0,94.3,1020.1,279.3,0.8,1.8,308.5,0.00,12.1,15.7,"06:01:44",1
"21/10/31","06:20",0.2,13.0,94.4,1020.1,308.9,0.7,1.4,338.3,0.00,12.2,15.6,"06:19:28",1
"21/10/31","06:30",0.0,13.1,94.5,1019.4,325.4,1.2,1.9,325.6,0.00,12.3,15.7,"06:23:36",1
"21/10/31","06:40",0.4,13.3,94.6,1019.9,275.0,0.8,1.6,305.1,0.00,12.5,15.7,"06:36:00",1
"21/10/31","06:50",0.2,13.4,94.7,1019.9,265.6,1.0,1.4,257.5,0.00,12.6,15.6,"06:41:12",1
"21/10/31","07:00",0.0,13.5,94.8,1020.1,303.9,0.8,1.6,338.4,0.00,12.7,15.7,"06:51:20",1
"21/10/31","07:10",0.2,13.6,94.9,1020.1,298.1,1.0,2.0,331.0,0.00,12.8,15.7,"07:01:04",1
"21/10/31","07:20",0.0,13.7,94.9,1019.9,317.7,1.0,1.4,324.9,0.00,12.9,15.8,"07:17:12",1
"21/10/31","07:30",0.2,13.7,95.0,1019.7,291.0,0.7,1.3,252.2,0.00,13.0,15.8,"07:23:28",1
"21/10/31","07:40",0.0,13.8,95.2,1020.4,289.7,0.8,1.4,311.6,0.01,13.1,15.8,"07:30:48",1
"21/10/31","07:50",0.0,14.1,95.2,1020.1,207.1,0.2,0.9,257.8,0.03,13.4,15.8,"07:41:56",1
"21/10/31","08:00",0.0,14.2,95.2,1020.4,333.9,1.2,2.1,335.6,0.01,13.5,15.6,"07:57:38",1
"21/10/31","08:10",0.0,14.3,95.3,1020.6,312.4,1.2,2.1,324.1,0.01,13.6,15.8,"08:01:58",1
"21/10/31","08:20",0.0,14.3,95.3,1020.6,288.5,1.0,1.6,316.9,0.00,13.6,15.7,"08:11:06",1
"21/10/31","08:30",0.0,14.3,95.4,1020.6,274.8,1.1,1.9,283.0,0.01,13.6,15.9,"08:27:54",1
"21/10/31","08:40",0.0,14.5,95.5,1020.6,294.1,1.0,2.0,337.9,0.02,13.8,15.8,"08:39:04",1
"21/10/31","08:50",0.0,14.6,95.6,1020.6,296.4,1.1,1.8,303.1,0.03,13.9,15.9,"08:48:08",1
"21/10/31","09:00",0.0,14.7,95.6,1020.6,319.2,1.5,2.6,334.2,0.04,14.0,15.8,"08:50:16",1
"21/10/31","09:10",0.0,15.0,95.7,1020.4,276.1,1.0,1.8,257.9,0.07,14.4,16.0,"09:08:28",1
"21/10/31","09:20",0.0,15.2,95.6,1020.4,318.9,1.3,1.9,338.3,0.09,14.5,15.7,"09:15:28",1
"21/10/31","09:30",0.0,14.9,95.5,1020.1,316.6,1.5,2.2,336.5,0.09,14.2,15.9,"09:27:20",1
"21/10/31","09:40",0.0,15.3,95.8,1020.1,305.8,1.3,2.1,307.4,0.16,14.7,15.7,"09:36:24",1
"21/10/31","09:50",0.0,15.9,95.7,1020.1,305.6,1.2,2.5,335.2,0.20,15.3,15.8,"09:47:28",1
"21/10/31","10:00",0.0,16.4,95.3,1020.1,293.7,1.1,2.7,245.0,0.17,15.7,15.7,"09:50:02",1
"21/10/31","10:10",0.0,16.7,94.5,1020.1,232.4,1.2,2.8,241.4,0.30,15.9,15.9,"10:01:28",1
"21/10/31","10:20",0.0,17.2,94.0,1020.4,233.7,0.8,1.7,246.9,0.25,16.3,16.0,"10:19:36",1
"21/10/31","10:30",0.0,16.9,93.5,1020.1,253.8,0.8,1.3,268.1,0.09,15.9,15.9,"10:20:32",1
"21/10/31","10:40",0.0,17.3,93.0,1019.7,334.6,0.6,1.6,8.4,0.17,16.2,16.1,"10:39:12",1
"21/10/31","10:50",0.0,17.6,92.1,1019.0,319.0,0.8,2.1,330.2,0.25,16.3,16.2,"10:42:16",1
"21/10/31","11:00",0.0,18.1,91.2,1019.0,250.0,0.7,1.7,246.3,0.27,16.7,16.3,"10:50:32",1
"21/10/31","11:10",0.0,18.4,89.7,1019.4,231.7,1.0,2.4,234.9,0.29,16.7,16.2,"11:03:20",1
"21/10/31","11:20",0.0,18.5,87.3,1019.0,170.3,0.2,0.9,112.8,0.21,16.4,16.3,"11:12:32",1
"21/10/31","11:30",0.0,19.1,84.8,1018.7,177.7,0.3,1.1,226.5,0.30,16.5,16.0,"11:21:12",1
"21/10/31","11:40",0.0,19.3,78.9,1018.2,252.1,0.7,1.9,229.7,0.28,15.6,16.4,"11:34:48",1
"21/10/31","11:50",0.0,20.2,75.1,1018.2,243.3,0.6,1.7,231.7,0.35,15.7,16.5,"11:48:48",1
"21/10/31","12:00",0.0,21.0,71.0,1018.0,198.5,0.8,2.1,230.6,0.44,15.6,16.4,"11:55:12",1
"21/10/31","12:10",0.0,21.0,68.3,1017.3,231.2,1.2,2.7,228.9,0.40,15.0,16.6,"12:07:44",1
"21/10/31","12:20",0.0,21.3,67.7,1017.3,214.1,1.2,2.7,221.6,0.44,15.1,16.7,"12:11:36",1
"21/10/31","12:30",0.0,21.8,65.7,1017.1,230.4,1.0,2.2,136.4,0.44,15.1,16.6,"12:24:40",1
"21/10/31","12:40",0.0,21.3,64.7,1016.8,208.1,1.5,2.8,209.7,0.33,14.4,16.7,"12:35:20",1
"21/10/31","12:50",0.0,21.4,65.6,1016.1,208.2,1.0,2.6,213.8,0.28,14.7,17.0,"12:43:12",1
"21/10/31","13:00",0.0,21.8,64.6,1016.4,221.8,1.0,2.7,218.0,0.34,14.9,17.0,"12:53:44",1
"21/10/31","13:10",0.0,21.5,64.2,1016.4,227.6,1.6,3.2,210.1,0.31,14.5,17.1,"13:02:32",1
"21/10/31","13:20",0.0,21.8,63.6,1016.1,236.9,1.7,3.4,237.5,0.41,14.6,17.1,"13:17:36",1
"21/10/31","13:30",0.0,22.5,61.9,1015.6,219.4,1.1,2.6,223.9,0.43,14.9,17.1,"13:28:48",1
"21/10/31","13:40",0.0,22.5,60.5,1015.9,212.7,1.5,3.3,233.9,0.42,14.5,17.5,"13:33:36",1
"21/10/31","13:50",0.0,22.8,59.1,1015.6,174.2,0.8,1.7,129.5,0.35,14.4,17.6,"13:47:28",1
"21/10/31","14:00",0.0,23.0,59.0,1015.2,200.0,1.0,2.1,167.7,0.28,14.6,17.6,"13:50:16",1
"21/10/31","14:10",0.0,21.7,60.9,1015.4,194.7,1.8,3.6,224.9,0.14,13.9,17.5,"14:02:08",1
"21/10/31","14:20",0.0,22.0,61.1,1015.9,219.5,1.5,3.3,238.1,0.24,14.2,17.5,"14:15:44",1
"21/10/31","14:30",0.0,21.6,60.6,1015.9,213.9,1.3,2.7,190.9,0.11,13.7,18.0,"14:23:12",1
"21/10/31","14:40",0.0,21.4,61.7,1015.4,225.0,1.6,4.2,236.5,0.11,13.8,17.9,"14:34:56",1
"21/10/31","14:50",0.0,21.2,60.2,1015.6,246.3,1.6,2.7,229.7,0.12,13.2,18.0,"14:41:12",1
"21/10/31","15:00",0.0,21.7,58.1,1015.4,257.8,1.2,2.7,246.9,0.15,13.2,17.7,"14:55:20",1
"21/10/31","15:10",0.0,21.6,59.2,1015.4,242.1,0.7,1.6,202.1,0.09,13.3,18.0,"15:05:36",1
"21/10/31","15:20",0.0,21.4,61.6,1015.6,239.9,1.2,2.5,249.4,0.09,13.8,18.1,"15:17:52",1
"21/10/31","15:30",0.0,21.2,60.9,1015.6,259.3,1.1,2.4,244.2,0.08,13.4,18.0,"15:27:20",1
"21/10/31","15:40",0.0,21.1,61.4,1015.6,268.8,0.8,1.7,245.3,0.07,13.4,18.2,"15:33:28",1
"21/10/31","15:50",0.0,21.1,61.7,1015.9,259.4,0.7,1.7,225.0,0.07,13.5,18.1,"15:46:56",1
"21/10/31","16:00",0.2,21.1,62.1,1015.9,272.3,0.8,1.8,251.2,0.06,13.6,18.1,"15:55:52",1
"21/10/31","16:10",0.0,21.0,63.1,1015.4,287.8,0.7,1.9,249.6,0.05,13.8,18.1,"16:07:36",1
"21/10/31","16:20",0.0,20.8,63.7,1015.6,273.8,1.0,2.1,244.7,0.03,13.7,18.1,"16:11:44",1
"21/10/31","16:30",0.0,20.6,65.6,1015.9,320.5,0.7,1.2,330.5,0.02,14.0,18.1,"16:21:36",1
"21/10/31","16:40",0.0,20.6,68.0,1016.1,330.3,0.7,1.2,343.4,0.02,14.5,18.3,"16:33:36",1
"21/10/31","16:50",0.0,20.1,69.9,1015.9,326.7,0.8,1.4,335.9,0.00,14.5,18.0,"16:42:32",1
"21/10/31","17:00",0.0,19.6,71.3,1016.1,309.1,0.8,1.4,343.2,0.00,14.3,18.2,"16:59:12",1
"21/10/31","17:10",0.0,18.9,73.4,1016.4,313.3,0.8,1.3,308.9,0.00,14.1,18.3,"17:00:24",1
"21/10/31","17:20",0.0,18.0,75.6,1016.1,279.8,0.6,1.0,273.8,0.00,13.7,18.1,"17:13:28",1
"21/10/31","17:30",0.0,17.5,77.8,1016.1,298.8,0.7,1.3,342.6,0.00,13.6,18.2,"17:26:32",1
"21/10/31","17:40",0.0,17.2,79.6,1015.9,299.5,1.0,1.7,318.1,0.00,13.7,18.2,"17:37:36",1
"21/10/31","17:50",0.0,16.7,81.3,1016.1,317.2,1.1,1.8,313.7,0.00,13.5,18.1,"17:49:04",1
"21/10/31","18:00",0.0,16.4,82.4,1016.1,293.7,1.0,1.8,306.8,0.00,13.4,17.9,"17:50:32",1
"21/10/31","18:10",0.0,16.1,83.2,1016.6,290.6,0.8,1.3,310.0,0.00,13.3,17.9,"18:07:04",1
"21/10/31","18:20",0.0,15.8,84.0,1016.6,287.6,1.0,1.8,251.4,0.00,13.1,17.8,"18:16:00",1
"21/10/31","18:30",0.0,15.7,84.5,1017.1,285.6,1.1,1.4,288.4,0.00,13.1,18.0,"18:27:44",1
"21/10/31","18:40",0.0,15.6,84.8,1016.8,316.5,1.3,2.1,306.1,0.00,13.1,17.8,"18:36:56",1
"21/10/31","18:50",0.0,15.3,85.0,1017.3,325.0,1.1,1.7,316.7,0.00,12.8,18.0,"18:44:40",1
"21/10/31","19:00",0.0,14.8,85.6,1016.8,294.1,1.0,1.4,308.1,0.00,12.5,17.8,"18:55:12",1
"21/10/31","19:10",0.0,14.6,86.2,1017.1,275.1,0.8,1.4,271.0,0.00,12.4,17.7,"19:07:12",1
"21/10/31","19:20",0.0,14.5,86.6,1017.3,320.4,1.2,2.0,330.9,0.00,12.3,17.9,"19:15:04",1
"21/10/31","19:30",0.0,14.2,87.3,1017.5,308.8,1.2,1.6,336.2,0.00,12.2,17.7,"19:20:34",1
"21/10/31","19:40",0.0,14.3,87.9,1017.3,281.2,1.0,1.6,330.4,0.00,12.4,17.6,"19:37:20",1
"21/10/31","19:50",0.0,14.5,88.4,1017.3,279.2,1.1,1.4,262.7,0.00,12.6,17.8,"19:45:20",1
"21/10/31","20:00",0.0,14.6,88.7,1017.5,299.5,1.3,2.1,300.5,0.00,12.8,17.7,"19:57:36",1
"21/10/31","20:10",0.0,14.7,88.7,1017.5,290.3,0.8,2.2,335.4,0.00,12.9,17.7,"20:00:16",1
"21/10/31","20:20",0.0,14.6,88.9,1017.3,298.5,1.2,1.9,330.7,0.00,12.8,17.6,"20:19:12",1
"21/10/31","20:30",0.0,14.6,88.8,1017.3,317.2,0.8,2.2,338.7,0.00,12.8,17.6,"20:22:56",1
"21/10/31","20:40",0.0,14.5,88.8,1017.8,293.3,1.0,1.3,289.8,0.00,12.7,17.4,"20:33:20",1
"21/10/31","20:50",0.0,14.0,88.9,1017.8,319.0,1.2,1.7,333.2,0.00,12.2,17.6,"20:42:26",1
"21/10/31","21:00",0.0,13.6,89.2,1017.8,287.9,0.5,1.0,313.6,0.00,11.9,17.4,"20:51:26",1
"21/10/31","21:10",0.0,13.4,89.4,1017.8,303.7,1.0,1.4,334.7,0.00,11.7,17.4,"21:04:22",1
"21/10/31","21:20",0.0,13.4,89.8,1017.5,322.4,1.1,1.6,315.3,0.00,11.8,17.3,"21:12:56",1
"21/10/31","21:30",0.0,13.3,90.0,1018.0,303.8,1.1,1.6,321.0,0.00,11.7,17.3,"21:21:26",1
"21/10/31","21:40",0.0,13.8,90.4,1017.8,313.7,1.8,3.3,319.0,0.00,12.3,17.4,"21:32:54",1
"21/10/31","21:50",0.0,14.2,90.1,1017.8,317.0,1.8,2.8,308.2,0.00,12.6,17.4,"21:46:58",1
"21/10/31","22:00",0.0,14.3,89.8,1017.8,310.2,1.7,3.6,332.0,0.00,12.7,17.3,"21:57:12",1
"21/10/31","22:10",0.0,14.7,89.1,1018.2,306.9,2.2,3.5,340.4,0.00,13.0,17.1,"22:06:24",1
"21/10/31","22:20",0.0,14.7,88.3,1017.8,332.1,2.5,3.9,328.9,0.00,12.8,17.2,"22:11:30",1
"21/10/31","22:30",0.0,14.6,87.8,1017.8,329.4,2.3,4.2,332.5,0.00,12.6,17.1,"22:20:32",1
"21/10/31","22:40",0.0,14.6,87.4,1018.0,327.2,2.3,3.9,332.1,0.00,12.6,17.1,"22:37:12",1
"21/10/31","22:50",0.0,14.5,87.2,1018.0,310.3,1.6,2.8,311.6,0.00,12.4,17.1,"22:42:10",1
"21/10/31","23:00",0.0,14.4,87.1,1018.0,309.8,1.7,3.2,333.8,0.00,12.3,17.2,"22:58:40",1
"21/10/31","23:10",0.0,14.3,87.1,1018.0,328.7,2.0,3.3,326.0,0.00,12.2,17.0,"23:07:22",1
"21/10/31","23:20",0.0,14.3,87.1,1017.8,328.0,2.5,3.9,326.8,0.00,12.2,16.9,"23:15:18",1
"21/10/31","23:30",0.0,14.3,87.3,1017.5,318.3,2.1,3.2,329.3,0.00,12.3,16.8,"23:22:50",1
"21/10/31","23:40",0.0,14.3,87.6,1017.8,321.3,2.1,3.3,334.8,0.00,12.3,16.8,"23:38:00",1
"21/10/31","23:50",0.0,14.1,87.8,1018.0,329.2,2.0,3.3,332.5,0.00,12.1,16.8,"23:43:34",1
"21/10/31","24:00",0.0,13.9,88.0,1018.0,328.0,1.6,3.4,340.3,0.00,12.0,16.8,"23:56:16",1
